Time,TemperatureF,DewpointF,PressureIn,WindDirection,WindDirectionDegrees,WindSpeedMPH,WindSpeedGustMPH,Humidity,HourlyPrecipIn,Conditions,Clouds,dailyrainin,SoftwareType,DateUTC
2013-11-23 00:01:00,74.5,71.7,30.08,NE,43,3.0,3.0,91,0.07,,,0.00,Wunderground v.1.15,2013-11-23 05:01:00,
2013-11-23 00:02:00,74.5,71.7,30.08,NNE,17,2.0,3.0,91,0.06,,,0.00,Wunderground v.1.15,2013-11-23 05:02:00,
2013-11-23 00:03:00,74.4,71.6,30.08,North,360,1.0,3.0,91,0.05,,,0.00,Wunderground v.1.15,2013-11-23 05:03:00,
2013-11-23 00:05:00,74.4,71.9,30.08,ENE,63,0.0,3.0,92,0.05,,,0.00,Wunderground v.1.15,2013-11-23 05:05:00,
2013-11-23 00:07:00,74.4,71.9,30.08,East,90,1.0,3.0,92,0.04,,,0.00,Wunderground v.1.15,2013-11-23 05:07:00,
2013-11-23 00:08:00,74.4,71.9,30.08,NE,43,3.0,3.0,92,0.04,,,0.00,Wunderground v.1.15,2013-11-23 05:08:00,
2013-11-23 00:15:00,74.5,72.0,30.08,NE,56,2.0,2.0,92,0.00,,,0.00,Wunderground v.1.15,2013-11-23 05:15:00,
2013-11-23 00:21:00,74.6,71.8,30.08,East,84,2.0,2.0,91,0.00,,,0.00,Wunderground v.1.15,2013-11-23 05:21:00,
2013-11-23 00:26:00,74.6,71.8,30.07,East,82,0.0,2.0,91,0.00,,,0.00,Wunderground v.1.15,2013-11-23 05:26:00,
2013-11-23 00:32:00,74.5,71.7,30.07,NE,46,1.0,3.0,91,0.00,,,0.00,Wunderground v.1.15,2013-11-23 05:32:00,
2013-11-23 00:38:00,74.4,71.6,30.07,NE,41,2.0,3.0,91,0.00,,,0.00,Wunderground v.1.15,2013-11-23 05:38:00,
2013-11-23 00:44:00,74.4,71.6,30.07,NE,51,0.0,1.0,91,0.00,,,0.00,Wunderground v.1.15,2013-11-23 05:44:00,
2013-11-23 00:50:00,74.4,71.6,30.06,East,80,0.0,0.0,91,0.00,,,0.00,Wunderground v.1.15,2013-11-23 05:50:00,
2013-11-23 00:56:00,74.3,71.5,30.06,NNE,29,0.0,0.0,91,0.00,,,0.00,Wunderground v.1.15,2013-11-23 05:56:00,
2013-11-23 01:01:00,74.2,71.7,30.06,East,98,1.0,2.0,92,0.00,,,0.00,Wunderground v.1.15,2013-11-23 06:01:00,
2013-11-23 01:06:00,74.3,71.8,30.06,NNE,25,3.0,3.0,92,0.00,,,0.00,Wunderground v.1.15,2013-11-23 06:06:00,
2013-11-23 01:12:00,74.4,71.6,30.06,ENE,72,0.0,1.0,91,0.00,,,0.00,Wunderground v.1.15,2013-11-23 06:12:00,
2013-11-23 01:18:00,74.5,71.7,30.05,NE,40,0.0,2.0,91,0.00,,,0.00,Wunderground v.1.15,2013-11-23 06:18:00,
2013-11-23 01:24:00,74.5,71.7,30.05,East,89,0.0,1.0,91,0.00,,,0.00,Wunderground v.1.15,2013-11-23 06:24:00,
2013-11-23 01:30:00,74.5,71.7,30.05,ENE,75,0.0,1.0,91,0.00,,,0.00,Wunderground v.1.15,2013-11-23 06:30:00,
2013-11-23 01:36:00,74.6,71.5,30.05,East,86,2.0,3.0,90,0.00,,,0.00,Wunderground v.1.15,2013-11-23 06:36:00,
2013-11-23 01:42:00,74.6,71.5,30.05,East,81,2.0,2.0,90,0.00,,,0.00,Wunderground v.1.15,2013-11-23 06:42:00,
2013-11-23 01:48:00,74.7,71.6,30.05,NE,34,0.0,3.0,90,0.00,,,0.00,Wunderground v.1.15,2013-11-23 06:48:00,
2013-11-23 01:53:00,74.7,71.6,30.05,ENE,73,0.0,1.0,90,0.00,,,0.00,Wunderground v.1.15,2013-11-23 06:53:00,
2013-11-23 01:59:00,74.7,71.6,30.05,East,93,0.0,1.0,90,0.00,,,0.00,Wunderground v.1.15,2013-11-23 06:59:00,
2013-11-23 02:04:00,74.7,71.6,30.05,NE,46,0.0,3.0,90,0.00,,,0.00,Wunderground v.1.15,2013-11-23 07:04:00,
2013-11-23 02:09:00,74.8,71.7,30.05,East,80,0.0,4.0,90,0.00,,,0.00,Wunderground v.1.15,2013-11-23 07:09:00,
2013-11-23 02:14:00,74.9,71.8,30.05,NE,56,0.0,4.0,90,0.00,,,0.00,Wunderground v.1.15,2013-11-23 07:14:00,
2013-11-23 02:19:00,75.1,71.6,30.05,NE,50,0.0,4.0,89,0.00,,,0.00,Wunderground v.1.15,2013-11-23 07:19:00,
2013-11-23 02:24:00,75.1,71.6,30.05,NE,48,1.0,2.0,89,0.00,,,0.00,Wunderground v.1.15,2013-11-23 07:24:00,
2013-11-23 02:29:00,75.1,71.6,30.05,NE,34,0.0,3.0,89,0.00,,,0.00,Wunderground v.1.15,2013-11-23 07:29:00,
2013-11-23 02:34:00,75.1,71.6,30.05,NNE,19,1.0,3.0,89,0.00,,,0.00,Wunderground v.1.15,2013-11-23 07:34:00,
2013-11-23 02:39:00,75.2,71.7,30.05,East,87,0.0,4.0,89,0.00,,,0.00,Wunderground v.1.15,2013-11-23 07:39:00,
2013-11-23 02:44:00,75.1,71.6,30.05,East,80,0.0,1.0,89,0.00,,,0.00,Wunderground v.1.15,2013-11-23 07:44:00,
2013-11-23 02:49:00,75.1,71.6,30.04,NE,39,1.0,3.0,89,0.00,,,0.00,Wunderground v.1.15,2013-11-23 07:49:00,
2013-11-23 02:54:00,75.1,71.3,30.04,East,82,0.0,3.0,88,0.00,,,0.00,Wunderground v.1.15,2013-11-23 07:54:00,
2013-11-23 02:59:00,75.1,71.3,30.04,NE,39,0.0,3.0,88,0.00,,,0.00,Wunderground v.1.15,2013-11-23 07:59:00,
2013-11-23 03:04:00,75.1,71.3,30.04,ENE,72,0.0,3.0,88,0.00,,,0.00,Wunderground v.1.15,2013-11-23 08:04:00,
2013-11-23 03:09:00,75.1,71.3,30.04,East,93,0.0,3.0,88,0.00,,,0.00,Wunderground v.1.15,2013-11-23 08:09:00,
2013-11-23 03:14:00,75.1,71.3,30.04,NNE,18,3.0,3.0,88,0.00,,,0.00,Wunderground v.1.15,2013-11-23 08:14:00,
2013-11-23 03:19:00,75.2,71.4,30.04,East,88,1.0,4.0,88,0.00,,,0.00,Wunderground v.1.15,2013-11-23 08:19:00,
2013-11-23 03:24:00,75.2,71.4,30.04,East,84,0.0,2.0,88,0.00,,,0.00,Wunderground v.1.15,2013-11-23 08:24:00,
2013-11-23 03:29:00,75.2,71.4,30.04,NNE,22,0.0,2.0,88,0.00,,,0.00,Wunderground v.1.15,2013-11-23 08:29:00,
2013-11-23 03:34:00,75.2,71.4,30.04,ENE,64,0.0,4.0,88,0.00,,,0.00,Wunderground v.1.15,2013-11-23 08:34:00,
2013-11-23 03:39:00,75.2,71.4,30.03,ENE,74,2.0,4.0,88,0.00,,,0.00,Wunderground v.1.15,2013-11-23 08:39:00,
2013-11-23 03:44:00,75.2,71.4,30.03,ENE,74,0.0,3.0,88,0.00,,,0.00,Wunderground v.1.15,2013-11-23 08:44:00,
2013-11-23 03:49:00,75.2,71.4,30.04,East,85,0.0,3.0,88,0.00,,,0.00,Wunderground v.1.15,2013-11-23 08:49:00,
2013-11-23 03:54:00,75.1,71.3,30.03,NE,51,0.0,1.0,88,0.00,,,0.00,Wunderground v.1.15,2013-11-23 08:54:00,
2013-11-23 03:59:00,75.0,71.2,30.03,East,89,1.0,2.0,88,0.00,,,0.00,Wunderground v.1.15,2013-11-23 08:59:00,
2013-11-23 04:04:00,75.0,71.2,30.04,East,81,0.0,3.0,88,0.00,,,0.00,Wunderground v.1.15,2013-11-23 09:04:00,
2013-11-23 04:09:00,75.0,71.2,30.03,NE,55,0.0,3.0,88,0.00,,,0.00,Wunderground v.1.15,2013-11-23 09:09:00,
2013-11-23 04:14:00,74.9,71.1,30.04,NE,54,0.0,1.0,88,0.00,,,0.00,Wunderground v.1.15,2013-11-23 09:14:00,
2013-11-23 04:19:00,74.9,71.4,30.04,NE,39,0.0,3.0,89,0.00,,,0.00,Wunderground v.1.15,2013-11-23 09:19:00,
2013-11-23 04:24:00,74.9,71.4,30.03,NNE,17,0.0,4.0,89,0.00,,,0.00,Wunderground v.1.15,2013-11-23 09:24:00,
2013-11-23 04:29:00,74.9,71.4,30.03,NE,54,0.0,4.0,89,0.00,,,0.00,Wunderground v.1.15,2013-11-23 09:29:00,
2013-11-23 04:34:00,74.9,71.4,30.03,ENE,75,0.0,3.0,89,0.00,,,0.00,Wunderground v.1.15,2013-11-23 09:34:00,
2013-11-23 04:39:00,74.9,71.4,30.03,East,84,0.0,4.0,89,0.00,,,0.00,Wunderground v.1.15,2013-11-23 09:39:00,
2013-11-23 04:44:00,74.9,71.4,30.03,East,79,0.0,3.0,89,0.00,,,0.00,Wunderground v.1.15,2013-11-23 09:44:00,
2013-11-23 04:49:00,74.9,71.4,30.04,North,8,1.0,3.0,89,0.00,,,0.00,Wunderground v.1.15,2013-11-23 09:49:00,
2013-11-23 04:54:00,74.9,71.4,30.03,NE,36,0.0,5.0,89,0.00,,,0.00,Wunderground v.1.15,2013-11-23 09:54:00,
2013-11-23 04:59:00,74.9,71.1,30.03,ENE,67,2.0,5.0,88,0.00,,,0.00,Wunderground v.1.15,2013-11-23 09:59:00,
2013-11-23 05:04:00,74.8,71.0,30.03,East,86,0.0,5.0,88,0.00,,,0.00,Wunderground v.1.15,2013-11-23 10:04:00,
2013-11-23 05:09:00,74.8,71.0,30.03,ENE,76,1.0,5.0,88,0.00,,,0.00,Wunderground v.1.15,2013-11-23 10:09:00,
2013-11-23 05:14:00,74.8,71.0,30.04,East,82,0.0,2.0,88,0.00,,,0.00,Wunderground v.1.15,2013-11-23 10:14:00,
2013-11-23 05:19:00,74.6,70.8,30.04,East,96,0.0,2.0,88,0.00,,,0.00,Wunderground v.1.15,2013-11-23 10:19:00,
2013-11-23 05:24:00,74.6,70.8,30.04,NNE,26,0.0,1.0,88,0.00,,,0.00,Wunderground v.1.15,2013-11-23 10:24:00,
2013-11-23 05:29:00,74.5,70.7,30.04,NE,55,0.0,2.0,88,0.00,,,0.00,Wunderground v.1.15,2013-11-23 10:29:00,
2013-11-23 05:34:00,74.5,71.0,30.04,East,84,1.0,2.0,89,0.00,,,0.00,Wunderground v.1.15,2013-11-23 10:34:00,
2013-11-23 05:39:00,74.5,71.0,30.04,East,87,0.0,2.0,89,0.00,,,0.00,Wunderground v.1.15,2013-11-23 10:39:00,
2013-11-23 05:44:00,74.5,71.0,30.04,North,11,0.0,3.0,89,0.00,,,0.00,Wunderground v.1.15,2013-11-23 10:44:00,
2013-11-23 05:49:00,74.6,71.1,30.04,ENE,65,0.0,3.0,89,0.00,,,0.00,Wunderground v.1.15,2013-11-23 10:49:00,
2013-11-23 05:54:00,74.6,71.1,30.04,East,79,0.0,3.0,89,0.00,,,0.00,Wunderground v.1.15,2013-11-23 10:54:00,
2013-11-23 05:59:00,74.7,71.2,30.04,ENE,77,0.0,3.0,89,0.00,,,0.00,Wunderground v.1.15,2013-11-23 10:59:00,
2013-11-23 06:04:00,74.7,71.2,30.04,ENE,63,0.0,3.0,89,0.00,,,0.00,Wunderground v.1.15,2013-11-23 11:04:00,
2013-11-23 06:09:00,74.9,71.1,30.04,East,79,0.0,4.0,88,0.00,,,0.00,Wunderground v.1.15,2013-11-23 11:09:00,
2013-11-23 06:14:00,75.0,71.2,30.04,East,84,0.0,3.0,88,0.00,,,0.00,Wunderground v.1.15,2013-11-23 11:14:00,
2013-11-23 06:19:00,75.1,71.3,30.04,North,11,0.0,6.0,88,0.00,,,0.00,Wunderground v.1.15,2013-11-23 11:19:00,
2013-11-23 06:24:00,75.1,71.3,30.04,East,81,0.0,4.0,88,0.00,,,0.00,Wunderground v.1.15,2013-11-23 11:24:00,
2013-11-23 06:29:00,75.1,71.3,30.04,ENE,75,1.0,4.0,88,0.00,,,0.00,Wunderground v.1.15,2013-11-23 11:29:00,
2013-11-23 06:34:00,75.1,71.3,30.04,ENE,69,0.0,2.0,88,0.00,,,0.00,Wunderground v.1.15,2013-11-23 11:34:00,
2013-11-23 06:39:00,75.1,71.3,30.04,NE,49,0.0,4.0,88,0.00,,,0.00,Wunderground v.1.15,2013-11-23 11:39:00,
2013-11-23 06:44:00,75.1,71.3,30.05,NE,41,0.0,3.0,88,0.00,,,0.00,Wunderground v.1.15,2013-11-23 11:44:00,
2013-11-23 06:49:00,75.1,71.3,30.05,ENE,75,0.0,3.0,88,0.00,,,0.00,Wunderground v.1.15,2013-11-23 11:49:00,
2013-11-23 06:54:00,75.2,71.4,30.05,ENE,75,4.0,5.0,88,0.00,,,0.00,Wunderground v.1.15,2013-11-23 11:54:00,
2013-11-23 06:59:00,75.3,71.5,30.05,East,79,0.0,5.0,88,0.00,,,0.00,Wunderground v.1.15,2013-11-23 11:59:00,
2013-11-23 07:04:00,75.3,71.5,30.05,ENE,77,1.0,4.0,88,0.00,,,0.00,Wunderground v.1.15,2013-11-23 12:04:00,
2013-11-23 07:09:00,75.4,71.6,30.05,NE,51,2.0,5.0,88,0.00,,,0.00,Wunderground v.1.15,2013-11-23 12:09:00,
2013-11-23 07:14:00,75.4,71.6,30.05,East,79,2.0,3.0,88,0.00,,,0.00,Wunderground v.1.15,2013-11-23 12:14:00,
2013-11-23 07:19:00,75.4,71.6,30.05,East,87,5.0,5.0,88,0.00,,,0.00,Wunderground v.1.15,2013-11-23 12:19:00,
2013-11-23 07:24:00,75.6,71.8,30.06,NE,50,1.0,6.0,88,0.00,,,0.00,Wunderground v.1.15,2013-11-23 12:24:00,
2013-11-23 07:29:00,75.7,71.9,30.06,NNE,22,0.0,6.0,88,0.00,,,0.00,Wunderground v.1.15,2013-11-23 12:29:00,
2013-11-23 07:34:00,75.9,72.1,30.06,ENE,77,0.0,3.0,88,0.00,,,0.00,Wunderground v.1.15,2013-11-23 12:34:00,
2013-11-23 07:39:00,76.0,72.2,30.06,ENE,63,1.0,4.0,88,0.00,,,0.00,Wunderground v.1.15,2013-11-23 12:39:00,
2013-11-23 07:44:00,76.1,71.9,30.06,ENE,66,0.0,5.0,87,0.00,,,0.00,Wunderground v.1.15,2013-11-23 12:44:00,
2013-11-23 07:49:00,76.2,72.0,30.06,East,86,0.0,5.0,87,0.00,,,0.00,Wunderground v.1.15,2013-11-23 12:49:00,
2013-11-23 07:54:00,76.1,71.9,30.07,East,88,2.0,3.0,87,0.00,,,0.00,Wunderground v.1.15,2013-11-23 12:54:00,
2013-11-23 07:59:00,76.2,72.4,30.07,East,82,0.0,6.0,88,0.00,,,0.00,Wunderground v.1.15,2013-11-23 12:59:00,
2013-11-23 08:04:00,76.4,72.2,30.07,East,93,1.0,2.0,87,0.00,,,0.00,Wunderground v.1.15,2013-11-23 13:04:00,
2013-11-23 08:09:00,76.8,72.6,30.07,ENE,61,1.0,4.0,87,0.00,,,0.00,Wunderground v.1.15,2013-11-23 13:09:00,
2013-11-23 08:14:00,77.3,73.1,30.07,ENE,58,0.0,4.0,87,0.00,,,0.00,Wunderground v.1.15,2013-11-23 13:14:00,
2013-11-23 08:19:00,77.6,73.1,30.07,North,6,2.0,6.0,86,0.00,,,0.00,Wunderground v.1.15,2013-11-23 13:19:00,
2013-11-23 08:24:00,77.9,73.0,30.07,East,91,4.0,5.0,85,0.00,,,0.00,Wunderground v.1.15,2013-11-23 13:24:00,
2013-11-23 08:29:00,78.3,73.4,30.07,East,88,3.0,5.0,85,0.00,,,0.00,Wunderground v.1.15,2013-11-23 13:29:00,
2013-11-23 08:34:00,78.5,73.3,30.08,NNE,21,0.0,8.0,84,0.00,,,0.00,Wunderground v.1.15,2013-11-23 13:34:00,
2013-11-23 08:39:00,78.6,73.0,30.08,East,93,2.0,8.0,83,0.00,,,0.00,Wunderground v.1.15,2013-11-23 13:39:00,
2013-11-23 08:44:00,78.6,73.0,30.08,East,97,6.0,10.0,83,0.00,,,0.00,Wunderground v.1.15,2013-11-23 13:44:00,
2013-11-23 08:49:00,78.9,73.3,30.08,ESE,106,2.0,11.0,83,0.00,,,0.00,Wunderground v.1.15,2013-11-23 13:49:00,
2013-11-23 08:54:00,79.2,73.2,30.08,NE,37,3.0,9.0,82,0.00,,,0.00,Wunderground v.1.15,2013-11-23 13:54:00,
2013-11-23 08:59:00,79.4,72.7,30.08,ESE,105,5.0,9.0,80,0.00,,,0.00,Wunderground v.1.15,2013-11-23 13:59:00,
2013-11-23 09:04:00,79.7,73.3,30.08,NE,34,0.0,7.0,81,0.00,,,0.00,Wunderground v.1.15,2013-11-23 14:04:00,
2013-11-23 09:09:00,80.1,73.4,30.08,ENE,65,0.0,7.0,80,0.00,,,0.00,Wunderground v.1.15,2013-11-23 14:09:00,
2013-11-23 09:14:00,80.2,73.5,30.08,ESE,108,0.0,7.0,80,0.00,,,0.00,Wunderground v.1.15,2013-11-23 14:14:00,
2013-11-23 09:19:00,79.9,73.2,30.08,NW,326,2.0,7.0,80,0.00,,,0.00,Wunderground v.1.15,2013-11-23 14:19:00,
2013-11-23 09:24:00,79.6,72.9,30.09,East,101,0.0,5.0,80,0.00,,,0.00,Wunderground v.1.15,2013-11-23 14:24:00,
2013-11-23 09:29:00,79.5,73.2,30.09,ENE,77,3.0,7.0,81,0.00,,,0.00,Wunderground v.1.15,2013-11-23 14:29:00,
2013-11-23 09:34:00,79.4,72.7,30.09,East,88,2.0,10.0,80,0.00,,,0.00,Wunderground v.1.15,2013-11-23 14:34:00,
2013-11-23 09:39:00,79.4,72.7,30.08,East,81,4.0,10.0,80,0.00,,,0.00,Wunderground v.1.15,2013-11-23 14:39:00,
2013-11-23 09:44:00,79.5,72.8,30.08,ENE,77,3.0,10.0,80,0.00,,,0.00,Wunderground v.1.15,2013-11-23 14:44:00,
2013-11-23 09:49:00,79.7,73.0,30.08,East,89,9.0,11.0,80,0.00,,,0.00,Wunderground v.1.15,2013-11-23 14:49:00,
2013-11-23 09:54:00,80.0,72.9,30.08,NNE,30,5.0,8.0,79,0.00,,,0.00,Wunderground v.1.15,2013-11-23 14:54:00,
2013-11-23 09:59:00,79.9,72.8,30.08,NNE,16,2.0,8.0,79,0.00,,,0.00,Wunderground v.1.15,2013-11-23 14:59:00,
2013-11-23 10:04:00,79.8,72.7,30.08,ENE,72,6.0,11.0,79,0.00,,,0.00,Wunderground v.1.15,2013-11-23 15:04:00,
2013-11-23 10:09:00,79.7,73.0,30.08,East,91,4.0,11.0,80,0.00,,,0.00,Wunderground v.1.15,2013-11-23 15:09:00,
2013-11-23 10:14:00,79.6,72.9,30.08,NE,56,0.0,11.0,80,0.00,,,0.00,Wunderground v.1.15,2013-11-23 15:14:00,
2013-11-23 10:19:00,79.6,72.9,30.08,NE,37,2.0,11.0,80,0.00,,,0.00,Wunderground v.1.15,2013-11-23 15:19:00,
2013-11-23 10:24:00,79.7,72.6,30.08,ENE,63,1.0,8.0,79,0.00,,,0.00,Wunderground v.1.15,2013-11-23 15:24:00,
2013-11-23 10:29:00,79.7,72.6,30.08,East,79,3.0,8.0,79,0.00,,,0.00,Wunderground v.1.15,2013-11-23 15:29:00,
2013-11-23 10:34:00,80.2,73.5,30.08,ENE,70,0.0,5.0,80,0.00,,,0.00,Wunderground v.1.15,2013-11-23 15:34:00,
2013-11-23 10:39:00,80.4,72.9,30.08,ENE,74,0.0,7.0,78,0.00,,,0.00,Wunderground v.1.15,2013-11-23 15:39:00,
2013-11-23 10:44:00,80.5,73.0,30.08,ENE,70,6.0,7.0,78,0.00,,,0.00,Wunderground v.1.15,2013-11-23 15:44:00,
2013-11-23 10:49:00,80.2,72.7,30.08,NE,54,3.0,8.0,78,0.00,,,0.00,Wunderground v.1.15,2013-11-23 15:49:00,
2013-11-23 10:54:00,79.9,72.4,30.08,ENE,70,3.0,7.0,78,0.00,,,0.00,Wunderground v.1.15,2013-11-23 15:54:00,
2013-11-23 10:59:00,79.7,72.6,30.08,East,97,1.0,7.0,79,0.00,,,0.00,Wunderground v.1.15,2013-11-23 15:59:00,
2013-11-23 11:04:00,79.4,72.3,30.08,ENE,64,4.0,8.0,79,0.00,,,0.00,Wunderground v.1.15,2013-11-23 16:04:00,
2013-11-23 11:09:00,79.3,72.6,30.07,NE,47,3.0,9.0,80,0.00,,,0.00,Wunderground v.1.15,2013-11-23 16:09:00,
2013-11-23 11:14:00,79.3,72.6,30.07,ENE,77,1.0,6.0,80,0.00,,,0.00,Wunderground v.1.15,2013-11-23 16:14:00,
2013-11-23 11:19:00,79.3,72.2,30.07,NE,39,2.0,8.0,79,0.00,,,0.00,Wunderground v.1.15,2013-11-23 16:19:00,
2013-11-23 11:24:00,79.4,72.3,30.07,East,91,2.0,6.0,79,0.00,,,0.00,Wunderground v.1.15,2013-11-23 16:24:00,
2013-11-23 11:29:00,79.6,72.5,30.07,East,82,3.0,9.0,79,0.00,,,0.00,Wunderground v.1.15,2013-11-23 16:29:00,
2013-11-23 11:34:00,79.6,72.5,30.07,NNE,24,4.0,7.0,79,0.00,,,0.00,Wunderground v.1.15,2013-11-23 16:34:00,
2013-11-23 11:39:00,79.5,72.4,30.07,East,86,2.0,10.0,79,0.00,,,0.00,Wunderground v.1.15,2013-11-23 16:39:00,
2013-11-23 11:44:00,79.4,72.7,30.07,ENE,73,1.0,7.0,80,0.00,,,0.00,Wunderground v.1.15,2013-11-23 16:44:00,
2013-11-23 11:49:00,79.3,72.6,30.06,East,89,1.0,7.0,80,0.00,,,0.00,Wunderground v.1.15,2013-11-23 16:49:00,
2013-11-23 11:54:00,78.8,72.5,30.06,SW,219,1.0,5.0,81,0.00,,,0.00,Wunderground v.1.15,2013-11-23 16:54:00,
2013-11-23 11:59:00,77.7,71.8,30.06,SSE,150,1.0,5.0,82,0.00,,,0.00,Wunderground v.1.15,2013-11-23 16:59:00,
2013-11-23 12:04:00,76.6,70.7,30.06,SSE,160,0.0,4.0,82,0.00,,,0.00,Wunderground v.1.15,2013-11-23 17:04:00,
2013-11-23 12:09:00,75.7,70.2,30.05,SW,231,2.0,4.0,83,0.00,,,0.00,Wunderground v.1.15,2013-11-23 17:09:00,
2013-11-23 12:14:00,75.3,70.1,30.05,NE,41,3.0,4.0,84,0.00,,,0.00,Wunderground v.1.15,2013-11-23 17:14:00,
2013-11-23 12:19:00,75.1,69.9,30.05,WSW,252,0.0,4.0,84,0.00,,,0.00,Wunderground v.1.15,2013-11-23 17:19:00,
2013-11-23 12:24:00,74.7,69.2,30.05,SW,214,3.0,4.0,83,0.00,,,0.00,Wunderground v.1.15,2013-11-23 17:24:00,
2013-11-23 12:29:00,74.4,69.2,30.05,West,273,0.0,4.0,84,0.00,,,0.00,Wunderground v.1.15,2013-11-23 17:29:00,
2013-11-23 12:34:00,74.7,70.2,30.05,SSE,160,0.0,2.0,86,0.00,,,0.00,Wunderground v.1.15,2013-11-23 17:34:00,
2013-11-23 12:39:00,74.7,70.9,30.05,SSW,208,3.0,4.0,88,0.00,,,0.00,Wunderground v.1.15,2013-11-23 17:39:00,
2013-11-23 12:44:00,74.6,71.1,30.05,SE,126,3.0,4.0,89,0.00,,,0.00,Wunderground v.1.15,2013-11-23 17:44:00,
2013-11-23 12:49:00,74.4,70.9,30.04,SW,229,0.0,4.0,89,0.00,,,0.00,Wunderground v.1.15,2013-11-23 17:49:00,
2013-11-23 12:54:00,73.9,70.1,30.04,SSW,209,2.0,4.0,88,0.00,,,0.00,Wunderground v.1.15,2013-11-23 17:54:00,
2013-11-23 12:59:00,73.5,69.7,30.04,SSW,195,0.0,4.0,88,0.00,,,0.00,Wunderground v.1.15,2013-11-23 17:59:00,
2013-11-23 13:04:00,73.4,70.0,30.04,SE,125,3.0,4.0,89,0.00,,,0.00,Wunderground v.1.15,2013-11-23 18:04:00,
2013-11-23 13:09:00,73.5,70.4,30.05,ESE,114,0.0,6.0,90,0.00,,,0.00,Wunderground v.1.15,2013-11-23 18:09:00,
2013-11-23 13:14:00,73.3,70.2,30.04,East,84,1.0,7.0,90,0.00,,,0.00,Wunderground v.1.15,2013-11-23 18:14:00,
2013-11-23 13:19:00,73.1,70.3,30.04,SE,131,2.0,7.0,91,0.47,,,0.05,Wunderground v.1.15,2013-11-23 18:19:00,
2013-11-23 13:24:00,72.8,70.0,30.04,ESE,117,1.0,6.0,91,1.20,,,0.09,Wunderground v.1.15,2013-11-23 18:24:00,
2013-11-23 13:29:00,71.7,68.6,30.04,East,84,3.0,6.0,90,1.60,,,0.25,Wunderground v.1.15,2013-11-23 18:29:00,
2013-11-23 13:34:00,70.8,68.0,30.04,East,97,1.0,8.0,91,1.00,,,0.37,Wunderground v.1.15,2013-11-23 18:34:00,
2013-11-23 13:39:00,70.3,67.9,30.04,ESE,115,0.0,8.0,92,0.59,,,0.43,Wunderground v.1.15,2013-11-23 18:39:00,
2013-11-23 13:44:00,70.1,67.7,30.03,SSW,193,0.0,2.0,92,0.60,,,0.50,Wunderground v.1.15,2013-11-23 18:44:00,
2013-11-23 13:49:00,70.2,68.1,30.02,SSE,148,0.0,2.0,93,0.38,,,0.54,Wunderground v.1.15,2013-11-23 18:49:00,
2013-11-23 13:54:00,70.3,68.2,30.02,East,98,0.0,3.0,93,0.23,,,0.56,Wunderground v.1.15,2013-11-23 18:54:00,
2013-11-23 13:59:00,70.8,69.0,30.02,ENE,77,1.0,4.0,94,0.14,,,0.57,Wunderground v.1.15,2013-11-23 18:59:00,
2013-11-23 14:04:00,71.5,70.0,30.01,ESE,105,3.0,5.0,95,0.09,,,0.57,Wunderground v.1.15,2013-11-23 19:04:00,
2013-11-23 14:09:00,72.1,70.6,30.01,East,86,2.0,7.0,95,0.05,,,0.57,Wunderground v.1.15,2013-11-23 19:09:00,
2013-11-23 14:14:00,72.5,70.7,30.00,ENE,70,2.0,10.0,94,0.04,,,0.57,Wunderground v.1.15,2013-11-23 19:14:00,
2013-11-23 14:19:00,73.1,71.0,30.00,SSE,153,0.0,10.0,93,0.00,,,0.57,Wunderground v.1.15,2013-11-23 19:19:00,
2013-11-23 14:24:00,74.0,71.8,30.00,East,91,2.0,7.0,93,0.00,,,0.57,Wunderground v.1.15,2013-11-23 19:24:00,
2013-11-23 14:29:00,75.3,72.8,30.00,East,84,3.0,7.0,92,0.00,,,0.57,Wunderground v.1.15,2013-11-23 19:29:00,
2013-11-23 14:34:00,75.7,72.2,30.00,East,79,5.0,7.0,89,0.00,,,0.57,Wunderground v.1.15,2013-11-23 19:34:00,
2013-11-23 14:39:00,76.0,72.5,30.00,East,93,4.0,7.0,89,0.00,,,0.57,Wunderground v.1.15,2013-11-23 19:39:00,
2013-11-23 14:44:00,76.3,72.5,30.00,ENE,75,2.0,5.0,88,0.00,,,0.57,Wunderground v.1.15,2013-11-23 19:44:00,
2013-11-23 14:49:00,76.1,71.6,30.00,ESE,119,1.0,8.0,86,0.00,,,0.57,Wunderground v.1.15,2013-11-23 19:49:00,
2013-11-23 14:54:00,76.3,71.8,30.00,ESE,114,0.0,6.0,86,0.00,,,0.57,Wunderground v.1.15,2013-11-23 19:54:00,
2013-11-23 14:59:00,77.1,72.6,30.00,ESE,102,0.0,6.0,86,0.00,,,0.57,Wunderground v.1.15,2013-11-23 19:59:00,
2013-11-23 15:04:00,77.4,71.5,30.00,NNE,23,4.0,8.0,82,0.00,,,0.57,Wunderground v.1.15,2013-11-23 20:04:00,
2013-11-23 15:09:00,77.8,71.1,30.00,ENE,57,1.0,8.0,80,0.00,,,0.57,Wunderground v.1.15,2013-11-23 20:09:00,
2013-11-23 15:14:00,78.2,71.2,30.00,East,98,4.0,10.0,79,0.00,,,0.57,Wunderground v.1.15,2013-11-23 20:14:00,
2013-11-23 15:19:00,78.8,71.7,29.99,NE,55,0.0,10.0,79,0.00,,,0.57,Wunderground v.1.15,2013-11-23 20:19:00,
2013-11-23 15:24:00,79.2,72.9,29.99,ESE,105,0.0,6.0,81,0.00,,,0.57,Wunderground v.1.15,2013-11-23 20:24:00,
2013-11-23 15:29:00,79.6,73.3,29.99,East,81,0.0,6.0,81,0.00,,,0.57,Wunderground v.1.15,2013-11-23 20:29:00,
2013-11-23 15:34:00,80.0,73.6,29.99,ESE,114,0.0,3.0,81,0.00,,,0.57,Wunderground v.1.15,2013-11-23 20:34:00,
2013-11-23 15:39:00,80.1,73.7,29.99,East,84,0.0,7.0,81,0.00,,,0.57,Wunderground v.1.15,2013-11-23 20:39:00,
2013-11-23 15:44:00,80.3,73.9,29.99,East,94,3.0,6.0,81,0.00,,,0.57,Wunderground v.1.15,2013-11-23 20:44:00,
2013-11-23 15:49:00,80.7,74.3,29.99,East,89,1.0,6.0,81,0.00,,,0.57,Wunderground v.1.15,2013-11-23 20:49:00,
2013-11-23 15:54:00,80.5,73.8,29.99,East,97,0.0,10.0,80,0.00,,,0.57,Wunderground v.1.15,2013-11-23 20:54:00,
2013-11-23 16:00:00,80.4,74.0,29.99,East,88,0.0,10.0,81,0.00,,,0.57,Wunderground v.1.15,2013-11-23 21:00:00,
2013-11-23 16:05:00,80.4,73.7,30.00,East,88,1.0,3.0,80,0.00,,,0.57,Wunderground v.1.15,2013-11-23 21:05:00,
2013-11-23 16:10:00,80.0,73.6,30.00,East,85,6.0,7.0,81,0.00,,,0.57,Wunderground v.1.15,2013-11-23 21:10:00,
2013-11-23 16:15:00,80.1,74.1,30.00,NNE,22,2.0,7.0,82,0.00,,,0.57,Wunderground v.1.15,2013-11-23 21:15:00,
2013-11-23 16:20:00,80.2,73.1,30.00,NNE,30,0.0,1.0,79,0.00,,,0.57,Wunderground v.1.15,2013-11-23 21:20:00,
2013-11-23 16:25:00,80.2,72.7,30.00,NNE,22,1.0,8.0,78,0.00,,,0.57,Wunderground v.1.15,2013-11-23 21:25:00,
2013-11-23 16:30:00,80.3,72.8,30.00,ESE,105,0.0,3.0,78,0.00,,,0.57,Wunderground v.1.15,2013-11-23 21:30:00,
2013-11-23 16:35:00,80.4,72.9,30.00,ENE,64,0.0,6.0,78,0.00,,,0.57,Wunderground v.1.15,2013-11-23 21:35:00,
2013-11-23 16:40:00,80.7,72.8,30.00,ENE,63,0.0,1.0,77,0.00,,,0.57,Wunderground v.1.15,2013-11-23 21:40:00,
2013-11-23 16:45:00,80.6,72.7,30.00,ENE,68,4.0,6.0,77,0.00,,,0.57,Wunderground v.1.15,2013-11-23 21:45:00,
2013-11-23 16:50:00,80.6,72.7,30.00,East,94,3.0,4.0,77,0.00,,,0.57,Wunderground v.1.15,2013-11-23 21:50:00,
2013-11-23 16:55:00,80.2,72.3,30.00,East,98,1.0,4.0,77,0.00,,,0.57,Wunderground v.1.15,2013-11-23 21:55:00,
2013-11-23 17:00:00,79.8,72.3,30.00,East,89,0.0,2.0,78,0.00,,,0.57,Wunderground v.1.15,2013-11-23 22:00:00,
2013-11-23 17:06:00,79.5,72.4,30.00,East,94,0.0,4.0,79,0.00,,,0.57,Wunderground v.1.15,2013-11-23 22:06:00,
2013-11-23 17:11:00,79.2,72.9,30.00,ENE,76,0.0,1.0,81,0.00,,,0.57,Wunderground v.1.15,2013-11-23 22:11:00,
2013-11-23 17:16:00,78.9,72.6,30.00,NE,55,3.0,6.0,81,0.00,,,0.57,Wunderground v.1.15,2013-11-23 22:16:00,
2013-11-23 17:21:00,78.4,72.4,30.00,ENE,76,2.0,4.0,82,0.00,,,0.57,Wunderground v.1.15,2013-11-23 22:21:00,
2013-11-23 17:25:00,78.0,72.4,30.01,East,91,0.0,4.0,83,0.00,,,0.57,Wunderground v.1.15,2013-11-23 22:25:00,
2013-11-23 17:30:00,77.7,72.1,30.01,ENE,70,0.0,0.0,83,0.00,,,0.57,Wunderground v.1.15,2013-11-23 22:30:00,
2013-11-23 17:36:00,77.4,72.2,30.01,East,89,0.0,3.0,84,0.00,,,0.57,Wunderground v.1.15,2013-11-23 22:36:00,
2013-11-23 17:41:00,77.2,72.3,30.01,NE,47,0.0,1.0,85,0.00,,,0.57,Wunderground v.1.15,2013-11-23 22:41:00,
2013-11-23 17:46:00,76.9,72.0,30.01,East,98,0.0,2.0,85,0.00,,,0.57,Wunderground v.1.15,2013-11-23 22:46:00,
2013-11-23 17:51:00,76.7,72.2,30.01,East,88,0.0,0.0,86,0.00,,,0.57,Wunderground v.1.15,2013-11-23 22:51:00,
2013-11-23 17:56:00,76.5,72.0,30.01,NE,37,0.0,1.0,86,0.00,,,0.57,Wunderground v.1.15,2013-11-23 22:56:00,
2013-11-23 18:01:00,76.3,71.8,30.01,NE,44,0.0,1.0,86,0.00,,,0.57,Wunderground v.1.15,2013-11-23 23:01:00,
2013-11-23 18:06:00,76.2,71.7,30.01,East,91,0.0,2.0,86,0.00,,,0.57,Wunderground v.1.15,2013-11-23 23:06:00,
2013-11-23 18:09:00,76.2,71.7,30.01,East,90,0.0,2.0,86,0.00,,,0.57,Wunderground v.1.15,2013-11-23 23:09:00,
2013-11-23 18:14:00,76.0,71.8,30.01,East,91,0.0,0.0,87,0.00,,,0.57,Wunderground v.1.15,2013-11-23 23:14:00,
2013-11-23 18:19:00,75.9,71.8,30.01,East,91,0.0,0.0,87,0.00,,,0.57,Wunderground v.1.15,2013-11-23 23:19:00,
2013-11-23 18:24:00,75.8,71.7,30.02,ENE,76,0.0,0.0,87,0.00,,,0.57,Wunderground v.1.15,2013-11-23 23:24:00,
2013-11-23 18:29:00,75.8,72.0,30.02,ENE,72,0.0,1.0,88,0.00,,,0.57,Wunderground v.1.15,2013-11-23 23:29:00,
2013-11-23 18:34:00,75.8,72.0,30.02,ENE,74,0.0,1.0,88,0.00,,,0.57,Wunderground v.1.15,2013-11-23 23:34:00,
2013-11-23 18:39:00,75.7,71.9,30.02,East,94,0.0,1.0,88,0.00,,,0.57,Wunderground v.1.15,2013-11-23 23:39:00,
2013-11-23 18:44:00,75.7,71.9,30.02,East,95,0.0,0.0,88,0.00,,,0.57,Wunderground v.1.15,2013-11-23 23:44:00,
2013-11-23 18:49:00,75.6,72.1,30.02,SSW,208,1.0,1.0,89,0.00,,,0.57,Wunderground v.1.15,2013-11-23 23:49:00,
2013-11-23 18:54:00,75.6,72.1,30.02,SSW,208,0.0,0.0,89,0.00,,,0.57,Wunderground v.1.15,2013-11-23 23:54:00,
2013-11-23 18:59:00,75.6,72.1,30.02,SSW,208,0.0,0.0,89,0.00,,,0.57,Wunderground v.1.15,2013-11-23 23:59:00,
2013-11-23 19:04:00,75.4,71.6,30.02,SSW,208,0.0,0.0,88,0.00,,,0.57,Wunderground v.1.15,2013-11-24 00:04:00,
2013-11-23 19:09:00,75.2,71.7,30.02,SSW,208,0.0,0.0,89,0.00,,,0.57,Wunderground v.1.15,2013-11-24 00:09:00,
2013-11-23 19:14:00,75.0,71.5,30.02,SSW,208,0.0,0.0,89,0.00,,,0.57,Wunderground v.1.15,2013-11-24 00:14:00,
2013-11-23 19:19:00,74.9,71.8,30.02,SSW,208,0.0,0.0,90,0.00,,,0.57,Wunderground v.1.15,2013-11-24 00:19:00,
2013-11-23 19:24:00,74.8,71.7,30.02,SSW,208,0.0,0.0,90,0.00,,,0.57,Wunderground v.1.15,2013-11-24 00:24:00,
2013-11-23 19:29:00,74.5,71.4,30.02,SSW,208,0.0,0.0,90,0.00,,,0.57,Wunderground v.1.15,2013-11-24 00:29:00,
2013-11-23 19:34:00,74.3,71.2,30.02,SSW,208,0.0,0.0,90,0.00,,,0.57,Wunderground v.1.15,2013-11-24 00:34:00,
2013-11-23 19:39:00,74.2,71.4,30.02,SSW,208,0.0,0.0,91,0.00,,,0.57,Wunderground v.1.15,2013-11-24 00:39:00,
2013-11-23 19:44:00,74.1,71.3,30.02,SSW,208,0.0,0.0,91,0.00,,,0.57,Wunderground v.1.15,2013-11-24 00:44:00,
2013-11-23 19:49:00,74.0,71.2,30.02,SSW,208,0.0,0.0,91,0.00,,,0.57,Wunderground v.1.15,2013-11-24 00:49:00,
2013-11-23 19:54:00,73.8,71.3,30.03,SSW,208,0.0,0.0,92,0.00,,,0.57,Wunderground v.1.15,2013-11-24 00:54:00,
2013-11-23 19:59:00,73.7,71.2,30.03,SSW,208,0.0,0.0,92,0.00,,,0.57,Wunderground v.1.15,2013-11-24 00:59:00,
2013-11-23 20:04:00,73.7,71.2,30.03,SSW,208,0.0,0.0,92,0.00,,,0.57,Wunderground v.1.15,2013-11-24 01:04:00,
2013-11-23 20:09:00,73.7,71.2,30.03,SSW,208,0.0,0.0,92,0.00,,,0.57,Wunderground v.1.15,2013-11-24 01:09:00,
2013-11-23 20:14:00,73.6,71.1,30.03,SSW,208,0.0,0.0,92,0.00,,,0.57,Wunderground v.1.15,2013-11-24 01:14:00,
2013-11-23 20:19:00,73.6,71.1,30.03,SSW,208,0.0,0.0,92,0.00,,,0.57,Wunderground v.1.15,2013-11-24 01:19:00,
2013-11-23 20:24:00,73.6,71.4,30.03,SSW,208,0.0,0.0,93,0.00,,,0.57,Wunderground v.1.15,2013-11-24 01:24:00,
2013-11-23 20:29:00,73.5,71.4,30.04,SSW,208,0.0,0.0,93,0.00,,,0.57,Wunderground v.1.15,2013-11-24 01:29:00,
2013-11-23 20:34:00,73.5,71.0,30.04,SSW,208,0.0,0.0,92,0.00,,,0.57,Wunderground v.1.15,2013-11-24 01:34:00,
2013-11-23 20:39:00,73.4,71.3,30.04,SSW,208,0.0,0.0,93,0.00,,,0.57,Wunderground v.1.15,2013-11-24 01:39:00,
2013-11-23 20:44:00,73.4,71.3,30.04,SSW,208,0.0,0.0,93,0.00,,,0.57,Wunderground v.1.15,2013-11-24 01:44:00,
2013-11-23 20:49:00,73.4,71.3,30.04,SSW,208,0.0,0.0,93,0.00,,,0.57,Wunderground v.1.15,2013-11-24 01:49:00,
2013-11-23 20:54:00,73.3,71.2,30.04,SSW,208,0.0,0.0,93,0.00,,,0.57,Wunderground v.1.15,2013-11-24 01:54:00,
2013-11-23 20:59:00,73.3,71.2,30.04,SSW,208,0.0,0.0,93,0.00,,,0.57,Wunderground v.1.15,2013-11-24 01:59:00,
2013-11-23 21:04:00,73.2,71.1,30.04,SSW,208,0.0,0.0,93,0.00,,,0.57,Wunderground v.1.15,2013-11-24 02:04:00,
2013-11-23 21:09:00,73.2,71.1,30.04,SSW,208,0.0,0.0,93,0.00,,,0.57,Wunderground v.1.15,2013-11-24 02:09:00,
2013-11-23 21:14:00,73.3,71.2,30.04,SSW,208,0.0,0.0,93,0.00,,,0.57,Wunderground v.1.15,2013-11-24 02:14:00,
2013-11-23 21:19:00,73.3,71.2,30.04,SSW,208,0.0,0.0,93,0.00,,,0.57,Wunderground v.1.15,2013-11-24 02:19:00,
2013-11-23 21:24:00,73.3,71.2,30.04,SSW,208,0.0,0.0,93,0.00,,,0.57,Wunderground v.1.15,2013-11-24 02:24:00,
2013-11-23 21:29:00,73.3,71.2,30.04,SSW,208,0.0,0.0,93,0.00,,,0.57,Wunderground v.1.15,2013-11-24 02:29:00,
2013-11-23 21:34:00,73.3,71.2,30.04,SSW,208,0.0,0.0,93,0.00,,,0.57,Wunderground v.1.15,2013-11-24 02:34:00,
2013-11-23 21:39:00,73.3,71.2,30.04,SSW,208,0.0,0.0,93,0.00,,,0.57,Wunderground v.1.15,2013-11-24 02:39:00,
2013-11-23 21:44:00,73.3,71.2,30.04,SSW,208,0.0,0.0,93,0.00,,,0.57,Wunderground v.1.15,2013-11-24 02:44:00,
2013-11-23 21:49:00,73.3,71.2,30.04,SSW,208,0.0,0.0,93,0.00,,,0.57,Wunderground v.1.15,2013-11-24 02:49:00,
2013-11-23 21:54:00,73.4,71.6,30.04,SSW,208,0.0,0.0,94,0.00,,,0.57,Wunderground v.1.15,2013-11-24 02:54:00,
2013-11-23 21:59:00,73.4,71.6,30.04,SSW,208,0.0,0.0,94,0.00,,,0.57,Wunderground v.1.15,2013-11-24 02:59:00,
2013-11-23 22:04:00,73.3,71.2,30.04,SSW,208,0.0,0.0,93,0.00,,,0.57,Wunderground v.1.15,2013-11-24 03:04:00,
2013-11-23 22:09:00,73.2,71.4,30.04,SSW,208,0.0,0.0,94,0.00,,,0.57,Wunderground v.1.15,2013-11-24 03:09:00,
2013-11-23 22:14:00,73.1,71.3,30.04,SSW,208,0.0,0.0,94,0.00,,,0.57,Wunderground v.1.15,2013-11-24 03:14:00,
2013-11-23 22:19:00,73.1,71.3,30.05,SSW,208,0.0,0.0,94,0.00,,,0.57,Wunderground v.1.15,2013-11-24 03:19:00,
2013-11-23 22:24:00,73.2,71.4,30.05,SSW,208,0.0,0.0,94,0.00,,,0.57,Wunderground v.1.15,2013-11-24 03:24:00,
2013-11-23 22:29:00,73.2,71.4,30.05,SSW,208,0.0,0.0,94,0.00,,,0.57,Wunderground v.1.15,2013-11-24 03:29:00,
2013-11-23 22:34:00,73.3,71.5,30.05,SSW,208,0.0,0.0,94,0.00,,,0.57,Wunderground v.1.15,2013-11-24 03:34:00,
2013-11-23 22:39:00,73.4,71.6,30.05,SSW,208,0.0,1.0,94,0.00,,,0.57,Wunderground v.1.15,2013-11-24 03:39:00,
2013-11-23 22:44:00,73.4,71.6,30.04,SSE,162,0.0,0.0,94,0.00,,,0.57,Wunderground v.1.15,2013-11-24 03:44:00,
2013-11-23 22:49:00,73.3,71.5,30.04,ENE,76,0.0,1.0,94,0.00,,,0.57,Wunderground v.1.15,2013-11-24 03:49:00,
2013-11-23 22:54:00,73.1,71.0,30.04,ESE,108,0.0,2.0,93,0.00,,,0.57,Wunderground v.1.15,2013-11-24 03:54:00,
2013-11-23 22:59:00,73.0,70.5,30.04,East,89,1.0,3.0,92,0.00,,,0.57,Wunderground v.1.15,2013-11-24 03:59:00,
2013-11-23 23:04:00,73.0,69.9,30.04,East,80,0.0,3.0,90,0.00,,,0.57,Wunderground v.1.15,2013-11-24 04:04:00,
2013-11-23 23:09:00,73.1,69.7,30.04,East,81,0.0,3.0,89,0.00,,,0.57,Wunderground v.1.15,2013-11-24 04:09:00,
2013-11-23 23:14:00,73.0,69.2,30.04,East,85,0.0,1.0,88,0.00,,,0.57,Wunderground v.1.15,2013-11-24 04:14:00,
2013-11-23 23:19:00,72.7,68.3,30.04,East,84,0.0,1.0,86,0.00,,,0.57,Wunderground v.1.15,2013-11-24 04:19:00,
2013-11-23 23:24:00,72.5,67.7,30.04,ENE,58,0.0,2.0,85,0.00,,,0.57,Wunderground v.1.15,2013-11-24 04:24:00,
2013-11-23 23:29:00,72.4,67.6,30.03,ENE,58,0.0,2.0,85,0.00,,,0.57,Wunderground v.1.15,2013-11-24 04:29:00,
2013-11-23 23:34:00,72.2,67.4,30.03,ENE,58,0.0,0.0,85,0.00,,,0.57,Wunderground v.1.15,2013-11-24 04:34:00,
2013-11-23 23:39:00,72.0,67.2,30.03,ENE,59,0.0,0.0,85,0.00,,,0.57,Wunderground v.1.15,2013-11-24 04:39:00,
2013-11-23 23:44:00,71.7,66.9,30.03,ENE,58,0.0,0.0,85,0.00,,,0.57,Wunderground v.1.15,2013-11-24 04:44:00,
2013-11-23 23:49:00,71.4,67.0,30.03,ENE,60,0.0,0.0,86,0.00,,,0.57,Wunderground v.1.15,2013-11-24 04:49:00,
2013-11-23 23:54:00,71.1,66.7,30.03,ENE,58,0.0,0.0,86,0.00,,,0.57,Wunderground v.1.15,2013-11-24 04:54:00,
2013-11-23 23:59:00,70.9,66.5,30.03,ENE,58,0.0,0.0,86,0.00,,,0.57,Wunderground v.1.15,2013-11-24 04:59:00,